Regional Weather Roundup
Issued by NWS Northern Indiana

Home | Current Version | Previous Version | Graphics & Text | Print | Product List | Glossary On
Versions: 1 2 3 4 5 6 7 8 9 10 11 12 13 14 15 16 17 18 19 20 21 22 23 24 25 26 27 28 29 30 31 32 33 34 35 36 37 38 39 40 41 42 43 44 45 46 47 48 49 50
000
ASUS43 KIWX 240900
RWRIWX

KIWX WEATHER ROUNDUP
NATIONAL WEATHER SERVICE NORTHERN INDIANA
500 AM EDT SUN JUL 24 2016

NOTE: "FAIR" INDICATES FEW OR NO CLOUDS BELOW 12,000 FEET WITH NO
SIGNIFICANT WEATHER AND/OR OBSTRUCTIONS TO VISIBILITY.

* THESE STATIONS ARE NOT UNDER NWS QUALITY CONTROL. THEY ALSO MAY NOT
  REPORT WEATHER SUCH AS PRECIPITATION OR FOG.

INZ001>027-241000-
NORTHERN INDIANA

CITY           SKY/WX    TMP DP  RH WIND       PRES   REMARKS
KNOX*          CLOUDY    70  68  94 SE3       29.95S
SOUTH BEND     LGT RAIN  70  70 100 SE8       29.96F
GOSHEN         CLOUDY    71  68  90 CALM      29.98F
MONTICELLO*    CLOUDY    70  66  87 SE3       29.96S
ANGOLA*          N/A     73  66  78 NW3       29.99F
FORT WAYNE     CLOUDY    73  68  84 CALM      29.98F
PERU/GRISSOM   CLOUDY    71  71 100 SE8       29.95F

$$
INZ028>050-241000-
CENTRAL INDIANA

CITY           SKY/WX    TMP DP  RH WIND       PRES   REMARKS
LAFAYETTE      CLOUDY    71  69  93 SE5       29.96F
KOKOMO*        CLOUDY    70  66  88 SE7       29.99F
MUNCIE*        CLOUDY    75  69  81 W3        30.01F
INDIANAPOLIS   MOCLDY    78  73  84 NE7       29.99F

$$
MIZ043>046-050>051-056>058-064>065-071>073-077>080-241000-
SOUTHWEST LOWER MICHIGAN

CITY           SKY/WX    TMP DP  RH WIND       PRES   REMARKS
BATTLE CREEK   LGT RAIN  70  70 100 SE8       29.98F
BENTON HARBOR  CLOUDY    72  69  90 SE7       29.94F
COLDWATER*     LGT RAIN  73  73  99 NE7       29.98F
HOLLAND        LGT RAIN  72  70  93 SE9       29.94F
GRAND RAPIDS   MOCLDY    72  68  87 S8        29.96R
KALAMAZOO      LGT RAIN  72  69  90 SE6       29.96F
STURGIS*       LGT RAIN  71  71  99 CALM      29.96F
THREE RIVERS*  RAIN      74  72  94 S3        29.97F

$$
OHZ001>008-015>018-024>025-241000-
NORTHWEST OHIO

CITY           SKY/WX    TMP DP  RH WIND       PRES   REMARKS
DEFIANCE       CLOUDY    80  72  76 NW8       29.97F
FINDLAY        CLOUDY    75  69  81 W6        29.99R
TOLEDO EXPRESS CLOUDY    74  71  91 CALM      29.98R
TOLEDO METCALF CLOUDY    76  68  76 CALM      29.99R
LIMA           CLOUDY    75  73  93 W5        30.01R

$$
AND FOR LAKE MICHIGAN COASTAL AND OPEN LAKE BUOY OBSERVATIONS

STATION/POSITION TEMP    WIND        PRES    VSBY  WAVE
                 AIR SEA DIR/SP/G                  HT/PER
                 (F)     (DEG/KT/KT) (MB)    (MI)  (FT/S)
CALUMET HARBOR    71     200/  6/  8 1013.0F
MICHIGAN CITY     71     110/  7/  9   N/A
BURNS HARBOR      74     180/  6/ 11 1013.9F
SAINT JOSEPH      71     180/  4/  9 1014.9S
SOUTH LAKE BUOY   72 72  140/ 14/ 16 1012.4          1/ 3
4 MI NW BRIDGMAN  71 74  160/ 12/ 14 1013.4F         2/ 3
MICHIGAN CITY     73 73  140/ 10/ 14   N/A           2/ 4

$$
&&



USA.gov is the U.S. government's official web portal to all federal, state and local government web resources and services.